Weather History for KLHQ - January, 2013

Change the Weather History Date:

Sunday, January 13, 2013

  Actual Average Record
Temperature  
Mean Temperature 52 °F -  
Max Temperature 64 °F 33 °F 69 °F (2005)
Min Temperature 41 °F 14 °F -13 °F (1977)
Degree Days  
Heating Degree Days 12    
Growing Degree Days 2 (Base 50)    
Moisture  
Dew Point 50 °F    
Average Humidity 85    
Maximum Humidity 93    
Minimum Humidity 73    
Precipitation  
Precipitation 0.28 in - - ()
Sea Level Pressure  
Sea Level Pressure 29.91 in    
Wind  
Wind Speed 12 mph (WSW)    
Max Wind Speed 23 mph    
Max Gust Speed 32 mph    
Visibility 8 miles    
Events Rain    
Averages and records for this station are not official NWS values.
T = Trace of Precipitation, MM = Missing Value Source: NWS Daily Summary

Daily Weather History Graph

Daily Weather History Graph

Search for Another Location

Airport or City:

Trip Planner

Search our weather history database for the weather conditions in past years. The results will help you decide how hot, cold, wet, or windy it might be!

Date:

Astronomy

Jan. 13, 2013 Rise Set
Actual Time 7:50 AM EST 5:28 PM EST
Civil Twilight 7:20 AM EST 5:58 PM EST
Nautical Twilight 6:47 AM EST 6:31 PM EST
Astronomical Twilight 6:15 AM EST 7:04 PM EST
Moon 8:48 AM EST (1/13) 8:05 PM EST (1/13)
Length of Visible Light 10h 37m
Length of Day
9h 38m
Waxing Crescent, 5% of the Moon is Illuminated
Jan 13
Waxing Crescent
Jan 18
First Quarter
Jan 26
Full
Feb 3
Last Quarter
Feb 10
New

Hourly Weather History & Observations

Time (EST) Temp. Windchill Dew Point Humidity Pressure Visibility Wind Dir Wind Speed Gust Speed Precip Events Conditions
12:53 AM 64.0 °F - 59.0 °F 84% 29.85 in 10.0 mi SSW 12.7 mph 23.0 mph N/A   Clear
1:53 AM 64.0 °F - 57.9 °F 80% 29.83 in 10.0 mi SSW 15.0 mph - N/A   Scattered Clouds
2:53 AM 64.0 °F - 57.0 °F 78% 29.81 in 10.0 mi South 12.7 mph 24.2 mph N/A   Partly Cloudy
3:53 AM 64.0 °F - 55.9 °F 75% 29.81 in 10.0 mi SSW 18.4 mph 23.0 mph N/A   Mostly Cloudy
4:53 AM 64.0 °F - 55.0 °F 73% 29.80 in 10.0 mi South 16.1 mph 23.0 mph N/A   Mostly Cloudy
5:53 AM 64.0 °F - 55.0 °F 73% 29.83 in 10.0 mi SSW 18.4 mph 29.9 mph N/A   Overcast
6:53 AM 62.1 °F - 55.0 °F 78% 29.88 in 10.0 mi WSW 9.2 mph - 0.00 in Rain Light Rain
7:53 AM 60.1 °F - 55.9 °F 86% 29.92 in 8.0 mi SW 9.2 mph - 0.02 in Rain Light Rain
8:53 AM 59.0 °F - 55.9 °F 90% 29.93 in 10.0 mi SW 11.5 mph - 0.01 in Rain Light Rain
9:53 AM 59.0 °F - 55.9 °F 90% 29.93 in 10.0 mi SSW 12.7 mph 19.6 mph 0.00 in   Overcast
10:53 AM 61.0 °F - 55.9 °F 83% 29.94 in 10.0 mi SSW 10.4 mph - 0.00 in   Overcast
11:53 AM 62.1 °F - 55.0 °F 78% 29.88 in 10.0 mi South 10.4 mph - 0.00 in   Overcast
12:53 PM 62.1 °F - 55.0 °F 78% 29.88 in 10.0 mi South 6.9 mph - N/A   Mostly Cloudy
1:53 PM 62.1 °F - 54.0 °F 75% 29.85 in 10.0 mi South 13.8 mph 21.9 mph 0.00 in   Overcast
2:53 PM 62.1 °F - 54.0 °F 75% 29.87 in 10.0 mi Calm Calm - N/A   Scattered Clouds
3:53 PM 60.1 °F - 55.0 °F 83% 29.88 in 10.0 mi SSW 6.9 mph - 0.01 in Rain Light Rain
4:53 PM 57.9 °F - 55.0 °F 90% 29.89 in 4.0 mi SSW 5.8 mph - 0.03 in Rain Rain
5:53 PM 57.9 °F - 55.0 °F 90% 29.90 in 8.0 mi SSW 9.2 mph - 0.07 in Rain Light Rain
6:53 PM 59.0 °F - 55.0 °F 87% 29.85 in 10.0 mi South 12.7 mph - 0.02 in Rain Light Rain
7:53 PM 57.9 °F - 55.9 °F 93% 29.86 in 7.0 mi SSW 10.4 mph 17.3 mph 0.03 in Rain Light Rain
8:53 PM 57.9 °F - 55.0 °F 90% 29.85 in 10.0 mi SSW 6.9 mph - 0.04 in   Overcast
9:19 PM 51.8 °F - 48.2 °F 88% 29.89 in 6.0 mi NW 16.1 mph 26.5 mph 0.01 in Rain Rain
9:27 PM 46.4 °F 38.3 °F 42.8 °F 87% 29.90 in 6.0 mi NW 23.0 mph 32.2 mph 0.01 in Rain Light Rain
9:36 PM 44.6 °F 38.8 °F 42.8 °F 93% 29.92 in 6.0 mi NW 11.5 mph 29.9 mph 0.02 in Rain Light Rain
9:48 PM 44.6 °F 39.2 °F 42.8 °F 93% 29.92 in 4.0 mi NNW 10.4 mph - 0.03 in Rain Light Rain
9:53 PM 45.0 °F 40.6 °F 43.0 °F 93% 29.94 in 4.0 mi NNW 8.1 mph - 0.03 in Rain Light Rain
10:06 PM 44.6 °F 39.2 °F 42.8 °F 93% 29.94 in 4.0 mi NW 10.4 mph 19.6 mph 0.01 in Rain Light Rain
10:17 PM 44.6 °F 37.8 °F 41.0 °F 87% 29.98 in 4.0 mi NW 15.0 mph 24.2 mph 0.01 in Rain Light Rain
10:34 PM 42.8 °F 37.0 °F 39.2 °F 87% 30.00 in 4.0 mi NW 10.4 mph 23.0 mph 0.01 in   Overcast
10:41 PM 42.8 °F 35.8 °F 39.2 °F 87% 30.01 in 3.0 mi NW 13.8 mph 19.6 mph 0.01 in   Overcast
10:51 PM 42.8 °F 37.5 °F 39.2 °F 87% 30.02 in 2.5 mi NW 9.2 mph 18.4 mph 0.01 in   Overcast
10:53 PM 42.1 °F 35.7 °F 39.9 °F 92% 30.03 in 3.0 mi NW 11.5 mph 18.4 mph 0.01 in   Overcast
11:45 PM 41.0 °F 35.2 °F 37.4 °F 87% 30.07 in 7.0 mi NNW 9.2 mph 20.7 mph 0.01 in   Overcast
11:53 PM 41.0 °F 35.8 °F 37.9 °F 89% 30.08 in 7.0 mi NW 8.1 mph - 0.01 in   Overcast